Location: Asheville, NC
(35.6000°N, 82.5500°W)
Time: 17:05:10
(UTC-04:00)

FALCONSAT 3 - Pass Details

Date: 18 March 2018
Orbit: 460 x 464 km, 35.4° (Epoch: 17 June)

Event Time Altitude Azimuth Distance (km) Brightness Sun altitude
Exits shadow 05:29:41 25° 117° (ESE) 956 ? -26.2°
Drops below altitude 10° 05:31:23 10° 110° (ESE) 1,602 ? -25.9°
Sets 05:33:34 0° 108° (ESE) 2,475 ? -25.5°
